YO8SDE-8 Weather Reports


time (UTC)temp
C
wind
direction
speed
KPH
gust
KPH
rain 1hr
cm
rain 24hr
cm
rain mn
cm
humidity
%
barometer
mb
20260508065056 18 112 1.6 8.0 0.00 0.00 0.00 84 1002.6
20260508064556 18 112 8.0 8.0 0.00 0.00 0.00 85 1002.6
20260508064056 18 135 3.2 4.8 0.00 0.00 0.00 85 1002.6
20260508063556 17 135 0.0 0.0 0.00 0.00 0.00 86 1002.6
20260508063056 17 135 0.0 8.0 0.00 0.00 0.00 87 1002.6
20260508062556 17 135 0.0 0.0 0.00 0.00 0.00 87 1002.6
20260508062056 17 135 0.0 6.4 0.00 0.00 0.00 87 1002.6
20260508061556 16 135 0.0 6.4 0.00 0.00 0.00 87 1002.8
20260508061056 16 112 3.2 6.4 0.00 0.00 0.00 88 1002.8
20260508060556 16 112 0.0 6.4 0.00 0.00 0.00 88 1002.8
20260508060056 16 112 6.4 6.4 0.00 0.00 0.00 88 1002.7
20260508055556 16 112 1.6 6.4 0.00 0.00 0.00 88 1002.7
20260508055056 16 112 3.2 4.8 0.00 0.00 0.00 88 1002.7
20260508054556 16 112 0.0 6.4 0.00 0.00 0.00 88 1002.7
20260508054056 16 67 4.8 4.8 0.00 0.00 0.00 88 1002.6
20260508053556 16 135 0.0 0.0 0.00 0.00 0.00 89 1002.7
20260508053056 15 135 0.0 0.0 0.00 0.00 0.00 89 1002.7
20260508052556 15 135 0.0 0.0 0.00 0.00 0.00 89 1002.7
20260508052056 15 135 0.0 0.0 0.00 0.00 0.00 90 1002.5
20260508051556 15 135 0.0 0.0 0.00 0.00 0.00 90 1002.6
20260508051056 15 135 0.0 0.0 0.00 0.00 0.00 90 1002.5
20260508050556 14 135 0.0 0.0 0.00 0.00 0.00 89 1002.7
20260508050056 14 135 0.0 0.0 0.00 0.00 0.00 89 1002.6
20260508045556 13 135 0.0 0.0 0.00 0.00 0.00 89 1002.6
20260508045056 13 135 0.0 0.0 0.00 0.00 0.00 89 1002.6
20260508044556 13 135 0.0 4.8 0.00 0.00 0.00 89 1002.6
20260508044056 13 135 4.8 6.4 0.00 0.00 0.00 89 1002.3
20260508043556 13 135 0.0 0.0 0.00 0.00 0.00 89 1002.5
20260508043056 13 135 0.0 0.0 0.00 0.00 0.00 88 1002.4
20260508042556 13 135 0.0 0.0 0.00 0.00 0.00 88 1002.4
20260508042056 13 135 0.0 0.0 0.00 0.00 0.00 88 1002.4
20260508041556 13 135 0.0 0.0 0.00 0.00 0.00 87 1002.4
20260508041056 13 135 0.0 0.0 0.00 0.00 0.00 87 1002.3
20260508040556 13 135 0.0 0.0 0.00 0.00 0.00 87 1002.4
20260508040056 13 135 0.0 0.0 0.00 0.00 0.00 86 1002.4
20260508035556 13 135 0.0 0.0 0.00 0.00 0.00 85 1002.3
20260508035056 13 135 0.0 0.0 0.00 0.00 0.00 85 1002.2
20260508034556 13 135 0.0 0.0 0.00 0.00 0.00 85 1002.2
20260508034056 13 135 0.0 0.0 0.00 0.00 0.00 85 1002.2
20260508033556 13 135 0.0 0.0 0.00 0.00 0.00 85 1002.1
20260508033056 13 135 0.0 0.0 0.00 0.00 0.00 84 1002.2
20260508032556 13 135 0.0 0.0 0.00 0.00 0.00 84 1002.0
20260508032056 13 135 0.0 0.0 0.00 0.00 0.00 84 1002.1
20260508031556 13 135 0.0 0.0 0.00 0.00 0.00 84 1002.2
20260508031056 13 135 0.0 0.0 0.00 0.00 0.00 84 1002.0
20260508030556 13 135 0.0 0.0 0.00 0.00 0.00 84 1002.1
20260508030056 13 135 0.0 0.0 0.00 0.00 0.00 84 1002.1
20260508025556 13 135 0.0 0.0 0.00 0.00 0.00 84 1002.0
20260508025056 13 135 0.0 0.0 0.00 0.00 0.00 83 1002.0
20260508024556 13 135 0.0 0.0 0.00 0.00 0.00 83 1002.0
20260508024056 13 135 0.0 0.0 0.00 0.00 0.00 83 1001.9
20260508023556 13 135 0.0 0.0 0.00 0.00 0.00 83 1002.0
20260508023056 13 135 0.0 0.0 0.00 0.00 0.00 82 1002.1
20260508022556 13 135 0.0 0.0 0.00 0.00 0.00 82 1002.0
20260508022056 13 135 0.0 0.0 0.00 0.00 0.00 82 1002.0
20260508021556 13 135 0.0 0.0 0.00 0.00 0.00 82 1001.9
20260508021056 13 135 0.0 0.0 0.00 0.00 0.00 82 1001.9
20260508020556 13 135 0.0 0.0 0.00 0.00 0.00 82 1001.9
20260508020056 13 135 0.0 0.0 0.00 0.00 0.00 82 1001.9
20260508015556 13 135 0.0 0.0 0.00 0.00 0.00 81 1001.9
20260508015056 13 135 0.0 0.0 0.00 0.00 0.00 81 1001.9
20260508014556 13 135 0.0 0.0 0.00 0.00 0.00 81 1001.9
20260508014056 13 135 0.0 0.0 0.00 0.00 0.00 81 1001.9
20260508013556 13 135 0.0 0.0 0.00 0.00 0.00 81 1001.8
20260508013056 13 135 0.0 0.0 0.00 0.00 0.00 81 1001.9
20260508012556 13 135 0.0 0.0 0.00 0.00 0.00 81 1001.9
20260508012056 13 135 0.0 0.0 0.00 0.00 0.00 81 1001.8
20260508011556 13 135 0.0 0.0 0.00 0.00 0.00 81 1001.7
20260508011056 -18 135 0.0 6.4 0.00 0.00 0.00 81 1001.8
20260508010556 13 135 0.0 0.0 0.00 0.00 0.00 80 1001.7
20260508010056 13 112 0.0 0.0 0.00 0.00 0.00 79 1001.3
20260508005556 13 112 0.0 0.0 0.00 0.00 0.00 79 1001.5
20260508005056 13 112 0.0 0.0 0.00 0.00 0.00 78 1001.7
20260508004556 13 112 0.0 0.0 0.00 0.00 0.00 78 1001.6
20260508004056 13 112 0.0 0.0 0.00 0.00 0.00 78 1001.6
20260508003556 13 112 0.0 0.0 0.00 0.00 0.00 79 1001.8
20260508003056 13 112 0.0 0.0 0.00 0.00 0.00 79 1001.6
20260508002556 13 112 0.0 0.0 0.00 0.00 0.00 79 1001.5
20260508002056 13 112 0.0 0.0 0.00 0.00 0.00 79 1001.6
20260508001556 13 112 0.0 0.0 0.00 0.00 0.00 78 1001.5
20260508001056 13 112 0.0 0.0 0.00 0.00 0.00 78 1001.6
20260508000556 13 112 0.0 0.0 0.00 0.00 0.00 78 1001.7
20260508000056 12 112 0.0 0.0 0.00 0.00 0.00 77 1001.5
20260507235556 12 112 0.0 0.0 0.00 0.00 0.00 76 1001.4
20260507235056 12 112 0.0 0.0 0.00 0.00 0.00 76 1001.5
20260507234556 12 112 0.0 0.0 0.00 0.00 0.00 76 1001.6
20260507234056 12 112 0.0 0.0 0.00 0.00 0.00 76 1001.4
20260507233556 12 112 0.0 0.0 0.00 0.00 0.00 75 1001.5
20260507233056 12 112 0.0 0.0 0.00 0.00 0.00 74 1001.5
20260507232556 11 112 0.0 0.0 0.00 0.00 0.00 74 1001.6
20260507232056 11 112 0.0 0.0 0.00 0.00 0.00 73 1001.7
20260507231556 11 112 0.0 0.0 0.00 0.00 0.00 73 1001.6
20260507231056 11 112 0.0 0.0 0.00 0.00 0.00 73 1001.6
20260507230556 10 112 0.0 0.0 0.00 0.00 0.00 71 1001.6
20260507230056 10 112 0.0 0.0 0.00 0.00 0.00 70 1001.6
20260507225556 10 112 0.0 0.0 0.00 0.00 0.00 70 1001.6
20260507225056 10 112 0.0 0.0 0.00 0.00 0.00 69 1001.6
20260507224556 10 112 0.0 0.0 0.00 0.00 0.00 69 1001.5
20260507224056 10 112 0.0 0.0 0.00 0.00 0.00 69 1001.6
20260507223556 10 112 0.0 0.0 0.00 0.00 0.00 69 1001.6
20260507223056 10 112 0.0 0.0 0.00 0.00 0.00 69 1001.6
20260507222556 10 112 0.0 0.0 0.00 0.00 0.00 70 1001.7
20260507222056 10 112 0.0 0.0 0.00 0.00 0.00 70 1001.7
20260507221556 11 112 0.0 0.0 0.00 0.00 0.00 70 1001.8
20260507221056 11 112 0.0 0.0 0.00 0.00 0.00 70 1001.6
20260507220556 11 112 0.0 0.0 0.00 0.00 0.00 70 1001.5
20260507220056 12 112 0.0 0.0 0.00 0.00 0.00 70 1001.6
20260507215556 12 112 0.0 0.0 0.00 0.00 0.00 70 1001.6
20260507215056 12 112 0.0 0.0 0.00 0.00 0.00 70 1001.5
20260507214556 12 112 0.0 0.0 0.00 0.00 0.00 70 1001.5
20260507214056 12 112 0.0 0.0 0.00 0.00 0.00 70 1001.4
20260507213556 12 112 0.0 0.0 0.00 0.00 0.00 70 1001.5
20260507213056 13 112 0.0 0.0 0.00 0.00 0.00 70 1001.4
20260507212556 13 112 0.0 0.0 0.00 0.00 0.00 70 1001.4
20260507212056 13 112 0.0 0.0 0.00 0.00 0.00 70 1001.3
20260507211556 13 112 0.0 0.0 0.00 0.00 0.00 68 1001.3
20260507211056 13 112 0.0 0.0 0.00 0.00 0.00 68 1001.2
20260507210556 13 112 0.0 0.0 0.00 0.00 0.00 68 1001.2
20260507210056 14 112 0.0 0.0 0.00 0.00 0.00 67 1001.1
20260507205556 14 112 0.0 0.0 0.00 0.00 0.00 67 1001.2
20260507205056 14 112 0.0 0.0 0.00 0.00 0.00 67 1001.3
20260507204556 14 112 0.0 0.0 0.00 0.00 0.00 67 1001.3
20260507204056 15 112 0.0 0.0 0.00 0.00 0.00 67 1001.4
20260507203556 15 112 0.0 0.0 0.00 0.00 0.00 66 1001.4
20260507203056 15 112 0.0 0.0 0.00 0.00 0.00 67 1001.2
20260507202556 15 112 0.0 8.0 0.00 0.00 0.00 67 1001.2
20260507202056 15 112 8.0 11.3 0.00 0.00 0.00 66 1001.2
20260507201556 15 112 3.2 8.0 0.00 0.00 0.00 65 1001.3
20260507201056 15 135 0.0 0.0 0.00 0.00 0.00 63 1001.4
20260507200556 15 135 0.0 0.0 0.00 0.00 0.00 62 1001.3
20260507200056 15 135 0.0 0.0 0.00 0.00 0.00 62 1001.3
20260507195556 15 135 0.0 0.0 0.00 0.00 0.00 61 1001.4
20260507195056 15 135 0.0 0.0 0.00 0.00 0.00 61 1001.5
20260507194556 16 135 0.0 0.0 0.00 0.00 0.00 61 1001.5
20260507194056 16 135 0.0 0.0 0.00 0.00 0.00 60 1001.4
20260507193556 16 135 0.0 0.0 0.00 0.00 0.00 60 1001.3
20260507193056 17 135 0.0 0.0 0.00 0.00 0.00 59 1001.3
20260507192556 17 135 0.0 0.0 0.00 0.00 0.00 58 1001.4
20260507192056 17 135 0.0 6.4 0.00 0.00 0.00 57 1001.5
20260507191556 17 135 0.0 6.4 0.00 0.00 0.00 58 1001.5
20260507191056 17 112 4.8 9.7 0.00 0.00 0.00 58 1001.4
20260507190556 17 112 8.0 9.7 0.00 0.00 0.00 59 1001.2
20260507190056 17 135 3.2 6.4 0.00 0.00 0.00 59 1001.4
20260507185556 17 112 1.6 6.4 0.00 0.00 0.00 59 1001.3
20260507185056 17 135 6.4 6.4 0.00 0.00 0.00 58 1001.2
20260507184556 17 135 3.2 3.2 0.00 0.00 0.00 57 1001.2
20260507184056 17 135 0.0 0.0 0.00 0.00 0.00 56 1001.2
20260507183556 17 135 0.0 0.0 0.00 0.00 0.00 55 1001.2
20260507183056 18 135 0.0 0.0 0.00 0.00 0.00 53 1001.2
20260507182556 18 135 0.0 0.0 0.00 0.00 0.00 52 1001.1
20260507182056 19 135 0.0 0.0 0.00 0.00 0.00 51 1001.1
20260507181556 19 135 0.0 0.0 0.00 0.00 0.00 50 1001.2
20260507181056 19 135 0.0 0.0 0.00 0.00 0.00 50 1001.2
20260507180558 20 135 0.0 0.0 0.00 0.00 0.00 49 1001.0
20260507180056 20 135 0.0 0.0 0.00 0.00 0.00 49 1000.9
20260507175557 20 135 0.0 0.0 0.00 0.00 0.00 48 1001.1
20260507175057 20 135 0.0 8.0 0.00 0.00 0.00 48 1001.0
20260507174556 20 112 1.6 8.0 0.00 0.00 0.00 48 1000.8
20260507174056 21 135 8.0 8.0 0.00 0.00 0.00 48 1000.7
20260507173557 21 135 6.4 14.5 0.00 0.00 0.00 47 1000.6
20260507173057 21 112 17.7 17.7 0.00 0.00 0.00 47 1000.4
20260507172557 21 135 6.4 20.9 0.00 0.00 0.00 47 1000.4
20260507172057 21 112 12.9 19.3 0.00 0.00 0.00 47 1000.4
20260507171557 21 135 9.7 17.7 0.00 0.00 0.00 46 1000.2
20260507171057 21 135 12.9 25.7 0.00 0.00 0.00 46 1000.1
20260507170557 21 112 11.3 16.1 0.00 0.00 0.00 46 1000.1
20260507170057 22 135 12.9 16.1 0.00 0.00 0.00 46 1000.1
20260507165557 22 135 12.9 19.3 0.00 0.00 0.00 45 1000.1
20260507165057 22 135 14.5 20.9 0.00 0.00 0.00 45 1000.0
20260507164557 22 112 16.1 22.5 0.00 0.00 0.00 44 1000.0
20260507164057 22 135 22.5 22.5 0.00 0.00 0.00 44 999.9
20260507163557 23 135 16.1 29.0 0.00 0.00 0.00 43 999.8
20260507163057 23 135 9.7 27.4 0.00 0.00 0.00 42 1000.0
20260507162557 24 135 12.9 32.2 0.00 0.00 0.00 41 999.8
20260507162057 25 157 27.4 29.0 0.00 0.00 0.00 39 999.8
20260507161557 25 135 19.3 24.1 0.00 0.00 0.00 39 999.9
20260507161057 26 135 12.9 22.5 0.00 0.00 0.00 38 999.8
20260507160557 27 112 12.9 16.1 0.00 0.00 0.00 38 999.8
20260507160057 27 135 11.3 19.3 0.00 0.00 0.00 37 999.7
20260507155557 27 135 17.7 17.7 0.00 0.00 0.00 37 999.9
20260507155057 27 135 12.9 19.3 0.00 0.00 0.00 37 999.9
20260507154557 26 112 16.1 20.9 0.00 0.00 0.00 37 999.8
20260507154057 26 67 14.5 29.0 0.00 0.00 0.00 38 999.8
20260507153557 25 112 22.5 27.4 0.00 0.00 0.00 38 999.8
20260507153057 25 112 16.1 22.5 0.00 0.00 0.00 37 999.8
20260507152557 25 112 16.1 24.1 0.00 0.00 0.00 38 999.8
20260507152057 25 135 12.9 22.5 0.00 0.00 0.00 38 999.8
20260507151557 25 112 14.5 22.5 0.00 0.00 0.00 38 999.8
20260507151057 25 90 16.1 27.4 0.00 0.00 0.00 37 999.8
20260507150557 26 135 20.9 22.5 0.00 0.00 0.00 36 999.8
20260507150057 26 135 16.1 25.7 0.00 0.00 0.00 35 999.8
20260507145557 27 112 17.7 35.4 0.00 0.00 0.00 34 999.8
20260507145057 27 112 12.9 25.7 0.00 0.00 0.00 34 999.8
20260507144557 27 112 25.7 29.0 0.00 0.00 0.00 34 999.8
20260507144057 28 112 16.1 29.0 0.00 0.00 0.00 33 999.9
20260507143557 28 112 19.3 32.2 0.00 0.00 0.00 33 999.8
20260507143057 28 135 14.5 25.7 0.00 0.00 0.00 33 999.9
20260507142557 28 135 22.5 33.8 0.00 0.00 0.00 33 999.9
20260507142057 28 135 11.3 27.4 0.00 0.00 0.00 32 999.7
20260507141557 28 135 25.7 35.4 0.00 0.00 0.00 32 999.7
20260507141057 28 112 35.4 35.4 0.00 0.00 0.00 33 999.6
20260507140557 28 90 17.7 33.8 0.00 0.00 0.00 33 999.7
20260507140057 29 135 19.3 30.6 0.00 0.00 0.00 33 999.7
20260507135557 29 112 16.1 38.6 0.00 0.00 0.00 32 999.7
20260507135057 30 135 33.8 33.8 0.00 0.00 0.00 32 999.7
20260507134557 30 112 16.1 35.4 0.00 0.00 0.00 32 1000.0
20260507134057 29 90 20.9 27.4 0.00 0.00 0.00 33 999.7
20260507133557 28 135 19.3 25.7 0.00 0.00 0.00 33 999.9
20260507133057 28 135 14.5 29.0 0.00 0.00 0.00 33 1000.0
20260507132557 28 112 24.1 25.7 0.00 0.00 0.00 33 1000.0
20260507132057 29 112 22.5 29.0 0.00 0.00 0.00 32 1000.0
20260507131557 30 112 16.1 27.4 0.00 0.00 0.00 32 1000.0
20260507131057 30 90 22.5 27.4 0.00 0.00 0.00 31 1000.0
20260507130557 30 112 17.7 27.4 0.00 0.00 0.00 32 1000.0
20260507130057 30 112 9.7 27.4 0.00 0.00 0.00 32 999.9
20260507125557 30 135 20.9 32.2 0.00 0.00 0.00 32 1000.0
20260507125057 30 90 19.3 35.4 0.00 0.00 0.00 31 1000.1
20260507124557 30 135 17.7 30.6 0.00 0.00 0.00 32 1000.3
20260507124057 30 135 12.9 25.7 0.00 0.00 0.00 30 1000.2
20260507123557 30 90 12.9 29.0 0.00 0.00 0.00 32 1000.4
20260507123057 30 112 22.5 27.4 0.00 0.00 0.00 31 1000.4
20260507122557 30 90 19.3 29.0 0.00 0.00 0.00 32 1000.6
20260507122057 30 112 19.3 27.4 0.00 0.00 0.00 33 1000.7
20260507121557 30 90 17.7 30.6 0.00 0.00 0.00 33 1000.7
20260507121057 30 90 29.0 29.0 0.00 0.00 0.00 33 1000.7
20260507120557 30 135 19.3 29.0 0.00 0.00 0.00 33 1000.7
20260507120057 30 112 20.9 29.0 0.00 0.00 0.00 33 1000.9
20260507115557 30 135 22.5 29.0 0.00 0.00 0.00 34 1000.9
20260507115057 30 90 19.3 25.7 0.00 0.00 0.00 34 1000.8
20260507114557 30 112 19.3 27.4 0.00 0.00 0.00 34 1000.9
20260507114057 30 90 16.1 29.0 0.00 0.00 0.00 34 1001.0
20260507113557 29 112 16.1 27.4 0.00 0.00 0.00 34 1000.9
20260507113057 30 90 16.1 25.7 0.00 0.00 0.00 34 1001.0
20260507112557 30 135 24.1 25.7 0.00 0.00 0.00 34 1001.0
20260507112057 30 112 12.9 30.6 0.00 0.00 0.00 35 1001.1
20260507111557 29 135 14.5 24.1 0.00 0.00 0.00 35 1001.1
20260507111057 28 112 9.7 24.1 0.00 0.00 0.00 35 1001.1
20260507110557 29 112 17.7 29.0 0.00 0.00 0.00 35 1001.2
20260507110057 30 112 19.3 19.3 0.00 0.00 0.00 35 1001.2
20260507105557 30 90 8.0 27.4 0.00 0.00 0.00 33 1001.3
20260507105057 30 112 20.9 25.7 0.00 0.00 0.00 34 1001.3
20260507104557 30 135 12.9 19.3 0.00 0.00 0.00 35 1001.3
20260507104057 30 112 6.4 19.3 0.00 0.00 0.00 35 1001.6
20260507103557 29 112 20.9 22.5 0.00 0.00 0.00 36 1001.4
20260507103057 29 135 17.7 20.9 0.00 0.00 0.00 36 1001.5
20260507102557 29 135 8.0 25.7 0.00 0.00 0.00 34 1001.7
20260507102057 30 112 16.1 19.3 0.00 0.00 0.00 35 1001.7
20260507101557 29 135 14.5 27.4 0.00 0.00 0.00 35 1001.5
20260507101057 30 112 17.7 27.4 0.00 0.00 0.00 36 1001.7
20260507100557 30 135 6.4 24.1 0.00 0.00 0.00 36 1001.8
20260507100057 30 112 11.3 22.5 0.00 0.00 0.00 36 1001.7
20260507095557 29 112 12.9 19.3 0.00 0.00 0.00 37 1001.8
20260507095057 29 112 14.5 16.1 0.00 0.00 0.00 37 1001.8
20260507094557 28 112 14.5 17.7 0.00 0.00 0.00 37 1001.9
20260507094057 29 90 8.0 19.3 0.00 0.00 0.00 36 1001.8
20260507093557 29 112 6.4 14.5 0.00 0.00 0.00 37 1001.9
20260507093057 29 112 12.9 19.3 0.00 0.00 0.00 37 1001.9
20260507092557 29 135 12.9 19.3 0.00 0.00 0.00 37 1001.9
20260507092057 29 112 8.0 17.7 0.00 0.00 0.00 37 1002.0
20260507091557 30 112 9.7 16.1 0.00 0.00 0.00 37 1002.0
20260507091057 30 135 0.0 14.5 0.00 0.00 0.00 37 1002.1
20260507090557 29 157 0.0 12.9 0.00 0.00 0.00 37 1002.2
20260507090057 28 112 8.0 11.3 0.00 0.00 0.00 39 1002.2
20260507085557 28 157 6.4 12.9 0.00 0.00 0.00 39 1002.2
20260507085057 28 135 0.0 19.3 0.00 0.00 0.00 39 1002.2
20260507084557 28 112 9.7 11.3 0.00 0.00 0.00 39 1002.2
20260507084057 28 67 0.0 12.9 0.00 0.00 0.00 38 1002.2
20260507083557 28 112 0.0 8.0 0.00 0.00 0.00 38 1002.2
20260507083057 28 157 0.0 11.3 0.00 0.00 0.00 38 1002.1
20260507082557 28 112 9.7 9.7 0.00 0.00 0.00 39 1002.2
20260507082057 28 135 4.8 9.7 0.00 0.00 0.00 40 1002.2
20260507081557 27 67 0.0 8.0 0.00 0.00 0.00 41 1002.2
20260507081057 27 112 4.8 14.5 0.00 0.00 0.00 42 1002.1
20260507080557 26 112 0.0 8.0 0.00 0.00 0.00 44 1002.1
20260507080057 25 112 3.2 9.7 0.00 0.00 0.00 45 1002.1
20260507075557 24 135 0.0 6.4 0.00 0.00 0.00 46 1002.1
20260507075057 23 112 0.0 9.7 0.00 0.00 0.00 46 1002.2
20260507074557 23 112 0.0 12.9 0.00 0.00 0.00 46 1002.2
20260507074057 24 67 0.0 8.0 0.00 0.00 0.00 46 1002.3
20260507073557 25 67 6.4 11.3 0.00 0.00 0.00 45 1002.2
20260507073057 25 67 0.0 8.0 0.00 0.00 0.00 45 1002.3
20260507072557 25 112 3.2 6.4 0.00 0.00 0.00 45 1002.4
20260507072057 25 112 0.0 8.0 0.00 0.00 0.00 46 1002.4
20260507071557 24 90 0.0 6.4 0.00 0.00 0.00 46 1002.5
20260507071057 23 45 0.0 8.0 0.00 0.00 0.00 47 1002.4
20260507070557 23 112 0.0 9.7 0.00 0.00 0.00 48 1002.4
20260507070057 23 112 0.0 1.6 0.00 0.00 0.00 49 1002.3
20260507065557 22 67 0.0 9.7 0.00 0.00 0.00 49 1002.2